Weather History for Buffalo, NY

Change the Weather History Date:

Sunday, May 18, 2014

  Actual Average Record
Temperature  
Mean Temperature 51 °F 58 °F  
Max Temperature 59 °F 67 °F 89 °F (1889)
Min Temperature 42 °F 48 °F 33 °F (1981)
Degree Days  
Heating Degree Days 14 8  
Month to date heating degree days 177 190  
Since 1 July heating degree days 7032 6471  
Cooling Degree Days 0 1  
Month to date cooling degree days 21 6  
Year to date cooling degree days 21 9  
Moisture  
Dew Point 38 °F    
Average Humidity 65    
Maximum Humidity 96    
Minimum Humidity 33    
Precipitation  
Precipitation 0.01 in 0.12 in 1.14 in (2011)
Month to date precipitation 2.70 1.90  
Year to date precipitation 17.11 13.45  
Snow  
Snow 0.00 in 0.00 in T in (1950)
Month to date snowfall 0.0 0.3  
Since 1 July snowfall 129.9 94.7  
Snow Depth 0.00 in    
Sea Level Pressure  
Sea Level Pressure 30.25 in    
Wind  
Wind Speed 10 mph (SW)    
Max Wind Speed 18 mph    
Max Gust Speed 24 mph    
Visibility 10 miles    
Events Rain    
T = Trace of Precipitation, MM = Missing Value Source: NWS Daily Summary

Daily Weather History Graph

Daily Weather History Graph

Search for Another Location

Airport:

Trip Planner

Search our weather history database for the weather conditions in past years. The results will help you decide how hot, cold, wet, or windy it might be!

Date:

Astronomy

May. 18, 2014 Rise Set
Actual Time 5:48 AM EDT 8:34 PM EDT
Civil Twilight 5:16 AM EDT 9:07 PM EDT
Nautical Twilight 4:34 AM EDT 9:49 PM EDT
Astronomical Twilight 3:46 AM EDT 10:37 PM EDT
Moon No Moon Rise 9:36 AM EDT
Length of Visible Light 15h 51m
Length of Day
14h 45m
Waning Gibbous, 81% of the Moon is Illuminated
May 18
Waning Gibbous
May 21
Last Quarter
May 28
New
Jun 5
First Quarter
Jun 13
Full

Hourly Weather History & Observations

Time (EDT) Temp. Windchill Dew Point Humidity Pressure Visibility Wind Dir Wind Speed Gust Speed Precip Events Conditions
12:54 AM 45.0 °F 40.1 °F 39.0 °F 80% 30.21 in 10.0 mi WSW 9.2 mph - N/A   Scattered Clouds
1:54 AM 44.1 °F 40.1 °F 37.9 °F 79% 30.20 in 10.0 mi SSW 6.9 mph - N/A   Partly Cloudy
2:54 AM 44.1 °F 40.8 °F 39.9 °F 85% 30.21 in 10.0 mi SW 5.8 mph - N/A   Partly Cloudy
3:54 AM 42.1 °F 37.1 °F 39.0 °F 89% 30.22 in 10.0 mi SSW 8.1 mph - N/A   Partly Cloudy
4:54 AM 42.1 °F 38.4 °F 39.0 °F 89% 30.23 in 10.0 mi SW 5.8 mph - N/A   Clear
5:54 AM 43.0 °F 38.8 °F 39.9 °F 89% 30.25 in 10.0 mi SW 6.9 mph - N/A   Partly Cloudy
6:54 AM 43.0 °F 39.5 °F 41.0 °F 93% 30.26 in 10.0 mi SSW 5.8 mph - N/A   Partly Cloudy
7:54 AM 45.0 °F 41.2 °F 41.0 °F 86% 30.27 in 10.0 mi SSW 6.9 mph - N/A   Partly Cloudy
8:54 AM 48.9 °F - 41.0 °F 74% 30.28 in 10.0 mi SW 10.4 mph - N/A   Partly Cloudy
9:54 AM 52.0 °F - 42.1 °F 69% 30.28 in 10.0 mi WSW 10.4 mph - N/A   Partly Cloudy
10:54 AM 53.1 °F - 41.0 °F 64% 30.29 in 10.0 mi WSW 8.1 mph - N/A   Partly Cloudy
11:54 AM 55.0 °F - 39.0 °F 55% 30.28 in 10.0 mi WSW 12.7 mph - N/A   Partly Cloudy
12:54 PM 55.0 °F - 39.0 °F 55% 30.27 in 10.0 mi SW 11.5 mph - N/A   Mostly Cloudy
1:54 PM 57.0 °F - 37.9 °F 49% 30.26 in 10.0 mi WSW 11.5 mph - N/A   Scattered Clouds
2:54 PM 57.0 °F - 37.0 °F 47% 30.25 in 10.0 mi SW 13.8 mph - N/A   Partly Cloudy
3:54 PM 59.0 °F - 30.9 °F 35% 30.23 in 10.0 mi SW 12.7 mph - N/A   Partly Cloudy
4:54 PM 55.9 °F - 28.9 °F 36% 30.24 in 10.0 mi WSW 13.8 mph - N/A   Mostly Cloudy
5:54 PM 54.0 °F - 28.0 °F 37% 30.25 in 10.0 mi SW 12.7 mph - N/A   Mostly Cloudy
6:54 PM 54.0 °F - 30.9 °F 41% 30.25 in 10.0 mi WSW 11.5 mph - N/A   Mostly Cloudy
7:54 PM 51.1 °F - 37.9 °F 61% 30.25 in 10.0 mi SW 11.5 mph 23.0 mph 0.01 in Rain Light Rain
8:54 PM 50.0 °F - 39.9 °F 68% 30.23 in 10.0 mi SSW 10.4 mph - 0.00 in   Partly Cloudy
9:54 PM 48.9 °F - 37.9 °F 66% 30.24 in 10.0 mi SSW 8.1 mph - N/A   Partly Cloudy
10:54 PM 50.0 °F - 37.0 °F 61% 30.23 in 10.0 mi SW 8.1 mph - N/A   Scattered Clouds
11:54 PM 50.0 °F - 37.0 °F 61% 30.23 in 10.0 mi SW 10.4 mph - N/A   Clear